STARLINK-4303, 53544

Orbit data source: Space-Track

STARLINK-4303, 53544 is a payload satellite owned by SpaceX/Seattle (US) in LEO that was launched on Fri, 19 Aug 2022 UTC via an FALCON 9 launch vehicle from the Air Force Eastern Test Range (AFETR). Payload-class satellites include a variety of spacecraft equipped with specific instruments for various scientific and technological missions. These include communications satellites like Starlink; space stations such as the ISS; scientific satellites like the Hubble; Earth observation satellites from companies like Planet Labs, Umbra, and HawkEye 360; GPS; miniature CubeSats for education and research; and military/defense satellites.

Loading next visibility...
Identifier
53544, 2022-101T
Orbit
LEO
Country
Flag of USUS
Related business
Manufacturer
SpaceX/Seattle
Mission
Operational Commercial Communications
Bus & Motor
STARLINK, Unknown motor
Mass
300 kg wet, ~290 kg dry
Launch date (UTC)
2022-08-19 (4 years ago)
Launch vehicle
FALCON 9
Launch site
Air Force Eastern Test Range (AFETR)
Object type
Payload
Rocket body
Debris
Shape & HBR
Box + 1 Pan, 10.1 m
Radar Cross Section
13.562 m², Large (>1 m²)

Expand to show TLE details & history
Last TLE update: 2 days ago

TLE from 2 days ago
0 STARLINK-4303
1 53544U 22101T   26171.41668980  .00065406  00000-0  36019-2 0  9998
2 53544  53.1600 322.8016 0001220 102.7811 223.9446 15.13434440  5728
Epoch: 2026-06-20T10:00Z
TLE epoch observation values (Epoch: 2026-06-20T10:00:01.998Z)
Latitude
-26.25136°
Longitude
-117.39687°
Altitude
534.068 km
Speed
7.595 km/s
True Right ascension
20h 04m 58s
True Declination
-26° 06' 39"
Sunlit
Object was in full shadow at epoch
Visualization orbit readout
Latitude
Unknown
Longitude
Unknown
Altitude
Unknown
Speed
Unknown
Apparent Right ascension
Unknown
Apparent Declination
Unknown
Sunlit
N/A
Visualization observer readout
Local Sidereal Time
23:08:37
Azimuth
Unknown
Elevation
Unknown
Doppler factor
Unknown
Orbital elements
Apogee altitude
526.832 km
Perigee altitude
525.148 km
Semi-major axis
6,904.127 km
Eccentricity
0.00012
Inclination
53.16°
RAAN
322.8016°
Arg. of periapsis
102.7811°
True anomaly
223.9349°
Mean anomaly
223.9446°
Eccentric anomaly
223.93975°
Mean motion
3.78338 °/min
Orbital period
95.15 mins
BSTAR
0.0036019
Loading maneuver chart data...
Computing Atmospheric mass density...
Loading historical data...
Loading historical data...
Loading historical data...
Loading historical data...
Loading historical data...
Loading historical data...
Loading historical data...

Documentation

Showing up to 5 results
|